{"data":{"norad_id":48789,"epoch":"2026-09-19T22:26:54.048192Z","epoch_age_seconds":70804,"freshness":"FRESH","line1":"1 48789U 21045Y   26262.93534778  .00000146  00000+0  35259-3 0  9999","line2":"2 48789  87.8996 240.3046 0001937  77.3545 282.7802 13.15547829256833","mean_motion":13.15547829,"eccentricity":0.0001937,"inclination_deg":87.8996,"raan_deg":240.3046,"arg_perigee_deg":77.3545,"mean_anomaly_deg":282.7802,"bstar":0.00035259,"rev_number":25683,"period_min":109.46010234342,"perigee_km":1200.3053082897,"apogee_km":1203.2417656317,"semimajor_km":7579.9105369607,"source":"CELESTRAK","updated_at":"2026-09-20T09:00:44.619881Z"}}